DateTimeUTC,F1_A11,F1_S11,BsB_S11,BsG_S11,BsR_S11,BbsB_S11,BbsG_S11,BbsR_S11,BaB_A11,BaG_A11,BaR_A11,Tu_S11,T_S11,Uu_S11,U_S11,P_S11,T1_A11
2021-11-05T19:00:00Z,00000200,21000000,,,,,,,-000.21,-000.37,-000.22,19.5,26.4,,00.0,0650.3,31.1
2021-11-05T19:01:00Z,00000200,21000000,,,,,,,-000.08,0000.16,0000.24,19.4,26.4,,00.0,0650.3,31.0
2021-11-05T19:02:00Z,00000200,21000000,,,,,,,0000.07,0000.23,-000.30,19.3,26.4,,00.0,0650.3,31.0
2021-11-05T19:03:00Z,00000200,61000000,,,,,,,0000.13,0000.13,0000.46,19.3,26.4,,00.0,0650.3,31.0
2021-11-05T19:04:00Z,00000200,41000000,0000.17,0000.05,0000.14,0000.40,-000.05,-000.23,0000.17,-000.03,-000.28,19.3,26.1,,00.0,0651.2,31.0
2021-11-05T19:05:00Z,00000200,01000000,-000.27,-000.12,-000.20,0000.12,0000.12,-000.11,0000.10,0000.12,0000.44,19.3,26.1,,00.0,0651.2,31.1
2021-11-05T19:06:00Z,00000200,01000000,-000.02,-000.13,-000.01,0000.52,-000.33,-000.22,-000.07,0000.42,0000.25,19.4,26.0,,00.0,0651.2,31.1
2021-11-05T19:07:00Z,00000200,01000000,-000.38,-000.14,0000.08,0000.03,0000.43,-000.26,0000.82,0000.30,0000.20,19.4,26.1,,00.0,0651.2,31.1
2021-11-05T19:08:00Z,00000200,01000000,-000.32,-000.06,-000.29,0000.27,0000.11,-000.22,0000.05,-000.03,-000.24,19.5,26.1,,00.0,0651.3,31.1
2021-11-05T19:09:00Z,00000200,01000000,-000.04,-000.08,-000.04,0000.08,-000.16,-000.46,0000.16,0000.22,0000.47,19.5,26.1,,00.0,0651.3,31.1
2021-11-05T19:10:00Z,00000200,01000000,-000.05,-000.00,0000.15,0000.77,0000.11,-000.21,-000.02,0000.30,-000.03,19.5,26.1,,00.0,0651.4,31.1
2021-11-05T19:11:00Z,00000200,01000000,-000.15,0000.03,0000.03,-000.01,-000.03,-000.26,-000.18,-000.08,0000.40,19.6,26.1,,00.0,0651.5,31.1
2021-11-05T19:12:00Z,00000200,01000000,0000.02,-000.23,0000.25,0000.68,-000.21,0000.08,0000.20,-000.44,-000.33,19.6,26.1,,00.0,0651.5,31.1
2021-11-05T19:13:00Z,00000200,01000000,0000.69,-000.12,0000.13,0000.29,-000.09,-000.04,-000.32,0000.22,-000.12,19.7,26.2,,00.0,0651.5,31.1
2021-11-05T19:14:00Z,00000200,01000000,0000.16,-000.09,-000.11,0000.84,-000.12,-000.11,-000.53,0000.01,-000.08,19.7,26.2,,00.0,0651.6,31.1
2021-11-05T19:15:00Z,00000200,01000000,-000.96,-000.12,-000.24,0000.00,0000.08,-000.26,0000.26,-000.48,-000.56,19.7,26.2,,00.0,0651.5,31.1
2021-11-05T19:16:00Z,00000200,01000000,-000.32,0000.02,-000.10,0000.33,-000.03,0000.03,-000.19,-000.01,0000.07,19.6,26.1,,00.0,0651.4,31.1
2021-11-05T19:17:00Z,00000200,01000000,0000.54,-000.11,-000.07,-000.06,0000.24,-000.17,0000.37,-000.11,-000.05,19.5,26.1,,00.0,0651.4,31.1
2021-11-05T19:18:00Z,00000200,01000000,-000.28,-000.05,-000.07,-000.25,0000.28,-000.28,-000.28,-000.19,0000.38,19.5,26.1,,00.0,0651.4,31.0
2021-11-05T19:19:00Z,00000200,01000000,-000.02,-000.22,-000.10,0000.99,0000.16,-000.50,-000.20,0000.26,-000.34,19.5,26.0,,00.0,0651.3,31.1
2021-11-05T19:20:00Z,00000200,01000000,0000.31,0000.25,0000.08,-000.11,0000.17,0000.08,0000.52,0000.12,0000.24,19.5,26.1,,00.0,0651.3,31.1
2021-11-05T19:21:00Z,00000200,01000000,0000.42,-000.40,0000.08,0000.46,-000.06,0000.07,0000.23,0000.67,0000.43,19.5,26.1,,00.0,0651.3,31.1
2021-11-05T19:22:00Z,00000200,01000000,-000.06,0000.02,-000.02,0000.40,-000.07,-000.02,0000.02,-000.11,-000.04,19.5,26.1,,00.0,0651.3,31.1
2021-11-05T19:23:00Z,00000200,01000000,-000.61,-000.22,0000.24,0000.49,0000.26,0000.13,0001.03,0000.76,0000.47,19.6,26.1,,00.0,0651.3,31.1
2021-11-05T19:24:00Z,00000200,01000000,0000.32,0000.02,-000.13,0000.17,-000.12,-000.13,0000.16,0000.32,0000.56,19.6,26.1,,00.0,0651.3,31.1
2021-11-05T19:25:00Z,00000200,01000000,0000.11,0000.15,-000.24,0000.02,0000.02,-000.06,0000.54,0000.16,0000.14,19.6,26.1,,00.0,0651.3,31.1
2021-11-05T19:26:00Z,00000200,01000000,0000.09,-000.45,0000.02,0000.26,0000.07,-000.14,0000.11,0000.19,0000.14,19.6,26.1,,00.0,0651.3,31.1
2021-11-05T19:27:00Z,00000200,01000000,-000.29,-000.09,0000.05,0000.71,0000.11,-000.51,0000.58,0000.22,0000.29,19.6,26.1,,00.0,0651.3,31.1
2021-11-05T19:28:00Z,00000200,01000000,0000.02,-000.17,-000.01,0000.28,0000.28,-000.08,-000.06,0000.19,-000.15,19.5,26.1,,00.0,0651.3,31.0
2021-11-05T19:29:00Z,00000200,01000000,-000.20,0000.17,0000.22,-000.25,0000.24,-000.12,0000.09,0000.30,0000.08,19.4,26.0,,00.0,0651.3,31.0
2021-11-05T19:30:00Z,00000200,01000000,0000.09,0000.00,-000.01,-000.17,-000.03,-000.11,0000.25,-000.11,0000.45,19.2,26.0,,00.0,0651.4,31.0
2021-11-05T19:31:00Z,00000200,01000000,-001.24,-000.26,-000.09,-000.01,-000.05,0000.00,-000.08,0000.22,-000.12,19.1,25.9,,00.0,0651.4,31.0
2021-11-05T19:32:00Z,00000200,01000000,-000.47,-000.01,0000.17,0000.18,-000.02,-000.24,0000.25,-000.17,-000.27,19.0,25.8,,00.0,0651.4,31.0
2021-11-05T19:33:00Z,00000200,01000000,0000.54,-000.05,0000.15,-000.01,-000.20,-000.15,0000.03,0000.01,-000.04,19.0,25.8,,00.0,0651.4,31.0
2021-11-05T19:34:00Z,00000200,01000000,-000.06,-000.31,-000.26,0000.10,0000.09,-000.38,-000.17,0000.02,0000.42,19.0,25.8,,00.0,0651.4,31.0
2021-11-05T19:35:00Z,00000200,01000000,-000.44,0000.20,0000.18,-000.01,-000.27,-000.16,0000.36,0000.45,-000.14,19.1,25.8,,00.0,0651.4,31.0
2021-11-05T19:36:00Z,00000200,01000000,-000.39,0000.21,-000.03,0000.42,0000.18,0000.26,0000.02,0000.12,0000.14,19.1,25.8,,00.0,0651.4,31.0
2021-11-05T19:37:00Z,00000200,01000000,0000.38,-000.22,-000.20,0000.43,0000.19,-000.24,-000.03,0000.03,0000.01,19.1,25.8,,00.0,0651.4,31.0
2021-11-05T19:38:00Z,00000200,01000000,0000.21,0000.19,-000.13,-000.00,0000.31,-000.45,0000.31,0000.20,0000.16,19.2,25.8,,00.0,0651.4,31.0
2021-11-05T19:39:00Z,00000200,01000000,-000.43,-000.00,0000.03,0000.26,0000.04,-000.33,-000.01,0000.05,0000.10,19.2,25.8,,00.0,0651.4,31.1
2021-11-05T19:40:00Z,00000200,01000000,-000.15,-000.18,0000.03,0000.44,-000.16,-000.15,0000.07,0000.02,-000.00,19.3,25.9,,00.0,0651.5,31.1
2021-11-05T19:41:00Z,00000200,01000000,0000.07,-000.55,-000.03,0000.25,-000.03,-000.15,0000.15,-000.05,0000.04,19.3,25.9,,00.0,0651.4,31.1
2021-11-05T19:42:00Z,00000200,01000000,0000.63,-000.32,-000.04,0000.25,-000.01,-000.21,0000.07,0000.12,-000.10,19.4,25.9,,00.0,0651.4,31.1
2021-11-05T19:43:00Z,00000200,01000000,-000.50,0000.15,-000.20,0000.50,0000.01,0000.02,-000.12,0000.14,0000.18,19.4,25.9,,00.0,0651.4,31.1
2021-11-05T19:44:00Z,00000200,01000000,0000.35,-000.23,0000.04,-000.18,-000.00,0000.02,-000.14,-000.36,0000.04,19.5,25.9,,00.0,0651.4,31.1
2021-11-05T19:45:00Z,00000200,01000000,0000.07,0000.05,0000.15,0000.38,-000.14,-000.14,0000.07,0000.15,-000.16,19.4,25.9,,00.0,0651.4,31.1
2021-11-05T19:46:00Z,00000200,01000000,0000.10,0000.05,0000.06,0000.45,0000.09,-000.08,-000.12,-000.18,-000.06,19.4,25.9,,00.0,0651.4,31.1
2021-11-05T19:47:00Z,00000200,01000000,-000.31,-000.33,0000.11,0000.43,-000.41,-000.20,-000.08,-000.09,-000.44,19.3,25.9,,00.0,0651.4,31.0
2021-11-05T19:48:00Z,00000200,01000000,-000.46,-000.07,0000.28,0000.74,0000.06,-000.14,0000.11,-000.10,0000.42,19.3,25.8,,00.0,0651.4,31.0
2021-11-05T19:49:00Z,00000200,01000000,-000.43,0000.41,-000.22,0000.99,-000.07,-000.09,-000.11,0000.24,-000.01,19.3,25.8,,00.0,0651.4,31.1
2021-11-05T19:50:00Z,00000200,01000000,0000.20,-000.27,-000.00,0000.17,0000.13,-000.43,0000.12,0000.44,-000.06,19.3,25.8,,00.0,0651.4,31.1
2021-11-05T19:51:00Z,00000200,01000000,0000.42,-000.20,-000.05,0000.31,-000.02,-000.12,0000.16,-000.60,0000.00,19.3,25.9,,00.0,0651.4,31.1
2021-11-05T19:52:00Z,00000200,01000000,-000.20,0000.20,0000.08,0000.07,0000.28,-000.18,-000.23,0000.04,-000.35,19.3,25.9,,00.0,0651.5,31.1
2021-11-05T19:53:00Z,00000200,01000000,0000.17,-000.07,-000.20,0000.29,-000.04,-000.31,0000.20,-000.01,0000.24,19.4,25.9,,00.0,0651.5,31.1
2021-11-05T19:54:00Z,00000200,01000000,0000.13,-000.37,0000.00,0000.49,-000.27,-000.36,-000.63,-000.11,0000.15,19.4,25.9,,00.0,0651.5,31.1
2021-11-05T19:55:00Z,00000200,01000000,0000.00,-000.16,0000.15,0000.47,0000.23,0000.01,0000.39,-000.15,-000.19,19.4,25.9,,00.0,0651.5,31.1
2021-11-05T19:56:00Z,00000200,01000000,0000.09,-000.06,0000.01,0000.71,0000.03,-000.47,-000.44,0000.03,0000.04,19.5,25.9,,00.0,0651.5,31.1
2021-11-05T19:57:00Z,00000200,41000000,,,,,,,0002.05,0001.70,0001.10,19.5,26.0,,00.0,0651.6,31.1
2021-11-05T19:58:00Z,00000200,61000000,,,,,,,-000.85,-000.82,-000.53,19.3,26.1,,00.0,0650.5,31.1
2021-11-05T19:59:00Z,00000200,21000000,,,,,,,-000.70,-000.23,-000.52,19.3,26.2,,00.0,0650.5,31.1
